sat.trackr.live / text

‹ back to catalog

STARLINK-34514

NORAD 64416 · 2025-129E

PAYLOAD ACTIVE UNKNOWN

§ Identity

Operator
Country
US
Launch date
2025-06-17
Launch site
AFWTR
Launch vehicle
Mass (kg)
RCS (m²)

Purposes: comms

External: N2YO · Heavens-Above · Gunter

§ Orbital elements

Epoch: 2026-05-25T05:08:22.642080Z

Period
96.11 min
Inclination
70.0005°
Eccentricity
0.0003484
Mean motion
14.98338096 rev/d
Perigee alt
569.6 km
Apogee alt
574.5 km
Semi-major
6,950.2 km
B*
2.9102e-4
RAAN
241.3631°
Arg perigee
269.3427°
Mean anomaly
90.7333°
Rev number
5,275

§ Raw data

STARLINK-345141 64416U 25129E   26145.21415095  .00003382  00000+0  29102-3 0  99972 64416  70.0005 241.3631 0003484 269.3427  90.7333 14.98338096 52752

JSON: /api/v1/satellites/64416 · /tle

For live sub-satellite position, see the globe view (requires WebGL).

§ Visibility from observer

Set your observer location to see the next 7 days of passes ≥ 10°. The values pass through the URL so the page stays shareable.

No JS? Fill the form by hand. The geolocation button needs JavaScript.